map of HAJ home
HAJ - Airport
Location
City:  Hannover, Lower Saxony, Germany
ICAO:EDDV
IATA:HAJ

Details
Type:Airport (Flugplatz, Airfield)
Use:Public/Civil, International (customs port of entry)
Latitude:5227'40"N (52.461056)
Longitude:941'06"E (9.685078)
Datum:WGS 1984
Elevation:183 ft (56 m)
Variation:2.99E (WMM2015v2 magnetic declination)
0.18 annual change
Runways:3
Longest:12467 × 148 ft (3800 × 45 m), paved

Time
Time Zone:UTC+1 (DST+2)
Local Time:

Weather
METAR:EDDV 041350Z 20008KT 170V230 CAVOK 04/M02 Q1025 NOSIG
TAF:EDDV 041100Z 0412/0512 19012KT 9999 SCT045 PROB30
TEMPO 0421/0503 21015G25KT
BECMG 0501/0503 25008KT

Related Locations
Nearby:
Farthest:CHT: 11770 mi / 18942 km
Waitangi [Tuuta], CIT, NZ

Find:

   beyond  
but within

Other Information
Maps:
NOTAMs:
Links:
Sources:

  
  • flag of Germany
  • flag of Lower Saxony
  

Airport Diagram

Airport diagram for HAJ

Larger airport diagram (OBSOLETE) from NGA

Sectional Chart

Flight Planning
at skyvector.com

Satellite Image

Google Maps Satellite view

 

Copyright © 2004-2019 Karl L. Swartz. All rights reserved.
The Great Circle Mapper name and logo are trademarks of the Great Circle Mapper.
All other trademarks mentioned herein belong to their respective owners.
Please see credits for attibutions and further copyright information.

  Follow gcmap on Facebook Follow gcmap on Twitter GCmap on LinkedIn

hCard Microformat

Geo Microformat